Flag for Tunisia Weather past 2 weeks in Tunis, Tunisia

Now
63 °F

Partly cloudy.


Feels Like: 63 °F
Forecast: 57 / 75 °F
Wind: 5 mph from Northwest

Location: Tunis-Carthage


UV Index: 0 (Low)

Visibility: N/A


Pressure: 29.71 "Hg

Humidity: 77%

Dew point: 55 °F

Location of TunisLocation

Historic Weather in Tunis

°F

Tunis temperature yesterday

Maximum temperature yesterday: 77 °F (at 11:30 AM)
Minimum temperature yesterday: 61 °F (at 12:30 AM)
Average temperature yesterday: 68 °F

Past Weeks' High & Low Weather Summary

 TemperatureHumidityPressure
High86 °F (Apr 19, 3:30 PM)100% (Apr 12, 3:00 AM)30.21 "Hg (Apr 12, 3:00 AM)
Low46 °F (Apr 11, 5:00 AM)14% (Apr 19, 4:00 PM)29.62 "Hg (Apr 20, 1:00 PM)
Average64 °F64%29.99 "Hg
* Reported Midnight between Apr 5 and Apr 6 — Apr 21 12:30 AM, Tunis, Weather by CustomWeather, © 2014

Note: Actual official high and low records may vary slightly from our data, if they occured in-between our weather recording intervals... More about our weather records

Advertising

Historic Weather Conditions — Data for Previous 24 hours

 ConditionsComfort  
Time TempWeatherWind HumidityBarometerVisibility
12:30 AM
Apr 21
63 °FPartly cloudy.7 mph77%29.71 "HgN/A
12:00 AM63 °FPartly cloudy.8 mph77%29.71 "HgN/A
11:30 PM
Apr 20
63 °FPartly cloudy.7 mph77%29.74 "HgN/A
11:00 PM63 °FPartly cloudy.6 mph77%29.71 "HgN/A
10:00 PM63 °FPartly cloudy.8 mph77%29.74 "HgN/A
9:30 PM64 °FPartly cloudy.10 mph73%29.71 "HgN/A
8:30 PM64 °FPartly cloudy.15 mph73%29.71 "HgN/A
8:00 PM66 °FPartly cloudy.17 mph68%29.68 "HgN/A
7:30 PM66 °FPartly cloudy.15 mph68%29.65 "HgN/A
7:00 PM68 °FPartly cloudy.17 mph64%29.65 "HgN/A
6:30 PM68 °FBroken clouds.18 mph64%29.65 "HgN/A
6:00 PM68 °FBroken clouds.16 mph64%29.65 "HgN/A
5:30 PM72 °FBroken clouds.17 mph61%29.65 "HgN/A
5:00 PM72 °FBroken clouds.15 mph57%29.65 "HgN/A
4:30 PM73 °FBroken clouds.15 mph61%29.62 "HgN/A
4:00 PM73 °FBroken clouds.12 mph61%29.65 "HgN/A
3:30 PM72 °FPartly sunny.9 mph65%29.65 "HgN/A
3:00 PM70 °FPartly sunny.9 mph69%29.62 "HgN/A
2:30 PM73 °FPartly sunny.9 mph61%29.62 "HgN/A
2:00 PM72 °FPartly sunny.8 mph65%29.62 "HgN/A
1:30 PM72 °FPartly sunny.5 mph61%29.65 "HgN/A
1:00 PM72 °FPartly sunny.10 mph61%29.62 "HgN/A
12:30 PM75 °FPartly sunny.7 mph57%29.65 "HgN/A
12:00 PM77 °FPartly sunny.3 mph47%29.68 "HgN/A
11:30 AM77 °FPartly sunny.5 mph47%29.65 "HgN/A
11:00 AM75 °FPartly sunny.7 mph50%29.65 "HgN/A
10:30 AM73 °FPartly sunny.6 mph53%29.65 "HgN/A
10:00 AM72 °FPartly sunny.7 mph57%29.65 "HgN/A
9:30 AM70 °FPartly sunny.7 mph64%29.68 "HgN/A
9:00 AM70 °FPartly sunny.5 mph64%29.71 "HgN/A
8:30 AM66 °FPartly sunny.5 mph78%29.71 "HgN/A
8:00 AM66 °FScattered clouds.7 mph78%29.71 "HgN/A
7:30 AM64 °FScattered clouds.8 mph83%29.71 "HgN/A
7:00 AM64 °FScattered clouds.7 mph78%29.68 "HgN/A
6:30 AM63 °FScattered clouds.5 mph88%29.71 "HgN/A
6:00 AM63 °FScattered clouds.6 mph83%29.68 "HgN/A
5:30 AM63 °FPassing clouds.5 mph77%29.68 "HgN/A
5:00 AM63 °FPassing clouds.5 mph77%29.71 "HgN/A
4:30 AM63 °FPassing clouds.No wind77%29.71 "HgN/A
3:30 AM63 °FPassing clouds.No wind73%29.71 "HgN/A
2:30 AM61 °FPassing clouds.No wind77%29.71 "HgN/A
2:00 AM61 °FPassing clouds.No wind72%29.74 "HgN/A
1:30 AM61 °FPassing clouds.No wind72%29.74 "HgN/A
Weather by CustomWeather, © 2014

See weather overview